Location: Newark
(48.8833°N, 0.9236°W)
Time: 02:15:17
(UTC+00:00)

Tiros 1 despin weight - Pass Details

Date: 24 November 2019
Orbit: 594 x 642 km, 48.2° (Epoch: 13 December)

Event Time Altitude Azimuth Distance (km) Brightness Sun altitude
Rises 13:54:13 0° 266° (W) 2,827 ? 15.3°
Reaches altitude 10° 13:56:30 10° 266° (W) 1,927 ? 15.1°
Maximum altitude 14:00:55 83° 180° (S) 605 ? 14.7°
Drops below altitude 10° 14:05:22 10° 92° (E) 1,941 ? 14.3°
Sets 14:07:40 0° 91° (E) 2,850 ? 14.1°
